Location: Poughquag
(41.6090°N, 73.6820°W)
Time: 06:27:44
(UTC-05:00)

Altair - Pass Details

Date: 03 December 2023
Orbit: 1501 x 1682 km, 47.2° (Epoch: 02 March)

Event Time Altitude Azimuth Distance (km) Brightness Sun altitude
Rises 10:53:59 0° 269° (W) 4,777 10.0 25.2°
Reaches altitude 10° 10:57:11 10° 273° (W) 3,768 9.5 25.3°
Maximum altitude 11:06:37 63° 354° (N) 1,681 7.8 25.7°
Drops below altitude 10° 11:15:45 10° 75° (ENE) 3,663 9.5 25.9°
Sets 11:18:49 0° 79° (E) 4,637 10.0 26.0°
